Hourly Data Report for September 26, 2017

All times are specified in Local Standard Time (LST). Add 1 hour to adjust for Daylight Saving Time where and when it is observed.

KUGAARUK CLIMATE
NUNAVUT

68°32'15.060" N
89°47'47.020" W
15.80 m
2303094
71407
NBB

Download Data

Hourly Data (September 2017)
Hourly Data Report for September 26, 2017
Temp Definition
°C
Dew Point Temp Definition
°C
Rel Hum Definition
%
Wind Dir Definition
10's deg

Wind Spd Definition
km/h
Visibility Definition
km
Stn Press Definition
kPa
Hmdx Definition


Wind Chill Definition


Weather Definition


TIME
00:00 -5.1 -5.9 94 5 1   101.60   -6 LegendNANA
01:00 -5.3 -6.1 94 6 3   101.58   -7 LegendNANA
02:00 -5.7 -6.4 95 6 2   101.57   -7 LegendNANA
03:00 -6.1 -6.8 95 3 4   101.57   -8 LegendNANA
04:00 -6.2 -6.9 94 5 5   101.55   -9 LegendNANA
05:00 -5.9 -6.6 95 6 8   101.53   -10 LegendNANA
06:00 -5.4 -6.6 91 5 5   101.48   -8 LegendNANA
07:00 -2.6 -4.2 89 6 8   101.45   -6 LegendNANA
08:00 -1.2 -2.7 90 5 9   101.41   -4 LegendNANA
09:00 0.8 -1.6 83 5 11   101.36     LegendNANA
10:00 3.6 -0.8 72 23 6   101.33     LegendNANA
11:00 4.2 -0.1 74 16 14   101.28     LegendNANA
12:00 4.7 0.1 72 18 17   101.23     LegendNANA
13:00 4.8 0.1 71 18 16   101.20     LegendNANA
14:00 4.8 0.0 71 14 6   101.16     LegendNANA
15:00 5.5 -0.3 66 19 5   101.12     LegendNANA
16:00 3.4 0.0 79 14 7   101.10     LegendNANA
17:00 3.0 0.2 82 17 12   101.07     LegendNANA
18:00 2.4 0.3 86 13 10   101.02     LegendNANA
19:00 3.1 1.2 87 14 8   100.96     LegendNANA
20:00 2.6 0.7 87 13 15   100.91     LegendNANA
21:00 3.1 1.2 87 16 13   100.87     LegendNANA
22:00 2.6 0.6 87 35 4   100.83     LegendNANA
23:00 2.7 1.3 91 12 8   100.78     LegendNANA

Notes on Data Quality.

Legend

  • E = Estimated
  • M = Missing
  • NA = Not Available
  • ‡ = Partner data that is not subject to review by the National Climate Archives
Date modified: